Location: Mohawk View
(42.7837°N, 73.7885°W)
Time: 13:28:04
(UTC+00:00)

Cosmos 1544 Rocket - Pass Details

Date: 17 June 2021
Orbit: 604 x 631 km, 82.5° (Epoch: 31 July)

Event Time Altitude Azimuth Distance (km) Brightness Sun altitude
Rises 02:51:17 0° 349° (N) 2,934 8.4 -17.9°
Reaches altitude 10° 02:53:32 10° 347° (NNW) 2,020 7.3 -18.1°
Maximum altitude 02:58:00 69° 264° (W) 675 3.7 -18.5°
Enters shadow 02:59:54 33° 190° (S) 1,056 4.3 -18.6°
